This is the latest recevied weather packets stored in our database for station/object G3VHU. If no packets are shown the sender has not sent any weather packets the latest 1 day(s).
| Time | Temp. | Humidity | Pressure | Rain* | Wind** | Luminosity | Snow |
|---|---|---|---|---|---|---|---|
| 1778069011 | 8.89° C | 68% | 1016.9 hPa | 0 mm | - | - | - |
| 1778068712 | 8.89° C | 69% | 1016.9 hPa | 0 mm | - | - | - |
| 1778067809 | 8.33° C | 70% | 1017.1 hPa | 0 mm | - | - | - |
| 1778067509 | 7.78° C | 73% | 1017.1 hPa | 0 mm | - | - | - |
| 1778067210 | 8.33° C | 74% | 1017 hPa | 0 mm | - | - | - |
| 1778066310 | 8.89° C | 72% | 1017 hPa | 0 mm | - | - | - |
| 1778065423 | 8.33° C | 69% | 1016.9 hPa | 0 mm | - | - | - |
| 1778064807 | 8.33° C | 69% | 1016.9 hPa | 0 mm | - | - | - |
| 1778064507 | 8.33° C | 69% | 1016.9 hPa | 0 mm | - | - | - |
| 1778064207 | 8.33° C | 69% | 1017 hPa | 0 mm | - | - | - |
| 1778063303 | 8.33° C | 69% | 1016.8 hPa | 0 mm | - | - | - |
| 1778062704 | 8.33° C | 70% | 1016.8 hPa | 0 mm | - | - | - |
| 1778062104 | 8.33° C | 70% | 1016.8 hPa | 0 mm | - | - | - |
| 1778061803 | 8.33° C | 69% | 1016.8 hPa | 0 mm | - | - | - |
| 1778061504 | 8.33° C | 70% | 1016.7 hPa | 0 mm | - | - | - |
| 1778061203 | 8.33° C | 71% | 1016.8 hPa | 0 mm | - | - | - |
| 1778060904 | 8.33° C | 70% | 1016.8 hPa | 0 mm | - | - | - |
| 1778060303 | 8.33° C | 72% | 1016.9 hPa | 0 mm | - | - | - |
| 1778059703 | 7.78° C | 73% | 1016.7 hPa | 0 mm | - | - | - |
| 1778059403 | 8.33° C | 76% | 1016.8 hPa | 0 mm | - | - | - |
| 1778059097 | 7.78° C | 74% | 1016.8 hPa | 0 mm | - | - | - |
| 1778058793 | 7.78° C | 75% | 1016.8 hPa | 0 mm | - | - | - |
| 1778058493 | 7.78° C | 76% | 1016.7 hPa | 0 mm | - | - | - |
| 1778058193 | 7.78° C | 77% | 1016.9 hPa | 0 mm | - | - | - |
| 1778057593 | 7.78° C | 78% | 1016.8 hPa | 0 mm | - | - | - |
* Rain latest hour (hover to see other rain measurements)
** Current wind speed in m/s (hover to see current wind gust speed)